+ View the NASA Portal
+ Center for Near-Earth Object Studies
IMPORTANT:
The SSD Announcement email list is now available. Major changes are coming in the near future, including possible hostname and/or URL changes. To be notified of such changes, subscribe to this email list.
Please visit
this page
for more details.
Don't show this message again
JPL Small-Body Database Browser
Search:
[
help
]
34311 (2000 QE188)
Classification:
Main-belt Asteroid
SPK-ID:
2034311
[
Ephemeris
|
Orbit Diagram
|
Orbital Elements
|
Mission Design
|
Physical Parameters
|
Discovery Circumstances
|
Close-Approach Data
]
[ show orbit diagram ]
Orbital Elements at Epoch 2458600.5 (2019-Apr-27.0) TDB
Reference:
JPL 23
(heliocentric ecliptic J2000)
Element
Value
Uncertainty (1-sigma)
Units
e
.1007053188897395
4.1841e-08
a
3.052598082034455
2.1044e-08
au
q
2.745185218740968
1.2975e-07
au
i
12.79663747823666
4.8467e-06
deg
node
121.2749311716653
2.4598e-05
deg
peri
338.7866973017245
4.0166e-05
deg
M
65.85887733227065
2.9549e-05
deg
t
p
2458244.118878788286
(2018-May-05.61887879)
0.0001602
TDB
period
1948.062415168924
5.33
2.0145e-05
5.515e-08
d
yr
n
.1847990070527505
1.911e-09
deg/d
Q
3.360010945327942
2.3164e-08
au
Orbit Determination Parameters
# obs. used (total)
897
data-arc span
9943 days (27.22 yr)
first obs. used
1992-02-04
last obs. used
2019-04-26
planetary ephem.
DE431
SB-pert. ephem.
SB431-N16
condition code
0
norm. resid. RMS
.59612
source
ORB
producer
Otto Matic
solution date
2019-Jul-13 01:41:23
Additional Information
Earth MOID
= 1.76609 au
Jupiter MOID
= 1.7743 au
T_jup
= 3.191
[ hide covariance matrix ]
Orbital Elements at Epoch 2456651.5 (2013-Dec-25.0) TDB
Reference:
JPL 23
(heliocentric ecliptic J2000)
Element
Value
Uncertainty (1-sigma)
Units
e
.1021546054737637
4.182e-08
q
2.740113286519425
1.2985e-07
au
t
p
2456294.939479939415
(2013-Jan-02.43947994)
0.00016061
TDB
node
121.293508292373
2.4602e-05
deg
peri
338.6947145382215
3.9799e-05
deg
i
12.79727447253671
4.847e-06
deg
Orbit Determination Parameters
# obs. used (total)
897
data-arc span
9943 days (27.22 yr)
first obs. used
1992-02-04
last obs. used
2019-04-26
planetary ephem.
DE431
SB-pert. ephem.
SB431-N16
condition code
0
norm. resid. RMS
.59612
source
ORB
producer
Otto Matic
solution date
2019-Jul-13 01:41:23
Additional Information
Jupiter MOID
= 1.7743 au
T_jup
= 3.191
Orbit Covariance (6×6)
e
q
tp
node
peri
i
e
1.748917528310916E-15
-5.372911131965876E-15
-3.626010064746669E-13
-1.078083358359605E-14
-5.240387343899663E-14
-3.507631658670925E-15
q
-5.372911131965876E-15
1.686077004744786E-14
4.662812445471585E-13
3.620068487327069E-14
4.612864959725154E-14
1.093074313108624E-14
tp
-3.626010064746669E-13
4.662812445471585E-13
2.579577680628045E-8
3.791672381262348E-11
5.068308968909567E-9
6.33222112741695E-12
node
-1.078083358359605E-14
3.620068487327069E-14
3.791672381262348E-11
6.052678519603126E-10
-5.817350100673134E-10
5.444551052631188E-12
peri
-5.240387343899663E-14
4.612864959725154E-14
5.068308968909567E-9
-5.817350100673134E-10
1.583965379243759E-9
-4.090378582980814E-12
i
-3.507631658670925E-15
1.093074313108624E-14
6.33222112741695E-12
5.444551052631188E-12
-4.090378582980814E-12
2.349341158052564E-11
[
Ephemeris
|
Orbit Diagram
|
Orbital Elements
|
Mission Design
|
Physical Parameters
|
Discovery Circumstances
|
Close-Approach Data
]
Physical Parameter Table
Parameter
Symbol
Value
Units
Sigma
Reference
Notes
absolute magnitude
H
14.2
n/a
MPO389907
diameter
diameter
5.273
km
0.426
urn:nasa:pds:neowise_diameters_albedos::2.0[mainbelt] (http://adsabs.harvard.edu/abs/2011ApJ...741...68M)
geometric albedo
albedo
0.160
0.031
urn:nasa:pds:neowise_diameters_albedos::2.0[mainbelt] (http://adsabs.harvard.edu/abs/2011ApJ...741...68M)
34311 (2000 QE188)
Discovered 2000-Aug-26 by LINEAR at Socorro
Reference:
20020128/Numbers.arc
Last Updated:
2004-04-19
[ hide close-approach data ]
Close-Approach Data
...sorted by
Date/Time (TDB)
Date/Time (TDB)
Time Uncertainty
(days_HH:MM)
Body
Nominal Distance (au)
Minimum Distance (au)
Maximum Distance (au)
V-relative (km/s)
V-infinity (km/s)
JD (TDB)
Time Uncertainty (minutes)
Semi-major axis (km)
Semi-minor axis (km)
range-LOV angle (deg)
N-sigma
BP
Orbit Ref.
Reference
Modified
1915-Feb-26 19:28
00:03
Jupiter
1.84867840156039
1.84867725715728
1.84867954597495
3.64166514521465
3.51359792657203
2420555.310898256
3.19446640436485
264.814203974403
21.0146725118883
78.1279575871839
2783954.45019061
T
23
CATAB v2.0e-lin.ifort 2019-Jul-13 01:41:28
2019-Jul-13 01:41
1973-May-06 07:37
00:01
Jupiter
1.78942730639764
1.78942686134522
1.78942775145027
3.70370722246945
3.57361867449071
2441808.817671815
1.24649659067042
126.597140746795
20.0040649612704
-87.9432442207273
3092811.9314164
T
23
CATAB v2.0e-lin.ifort 2019-Jul-13 01:41:28
2019-Jul-13 01:41
2021-Dec-02 23:55
< 00:01
Jupiter
1.84275595196731
1.84275534081835
1.84275656311649
3.5634138974567
3.43199925467271
2459551.496673715
0.42479307088246
61.0651689414442
18.5874180637405
68.3330347858342
2705690.6168591
T
23
CATAB v2.0e-lin.ifort 2019-Jul-13 01:41:28
2019-Jul-13 01:41
2080-Feb-10 07:42
00:02
Jupiter
1.7872593024603
1.78725874506475
1.78725985985879
3.70317716114804
3.57290861255087
2480804.821148899
2.13199337135918
198.27706384012
21.1994445967299
-85.3321273684931
3104232.57279328
T
23
CATAB v2.0e-lin.ifort 2019-Jul-13 01:41:28
2019-Jul-13 01:41
2128-Sep-10 12:54
00:04
Jupiter
1.83845597891869
1.83845459693176
1.83845736092244
3.48630078893831
3.3515434229832
2498549.037671477
3.85459572404704
309.478045605015
20.5421794514457
77.158006722836
2644024.80358708
T
23
CATAB v2.0e-lin.ifort 2019-Jul-13 01:41:28
2019-Jul-13 01:41
2186-Nov-17 20:16
00:05
Jupiter
1.78874049081589
1.78873937494427
1.78874160672756
3.70617973532378
3.57613030691367
2519801.344363594
5.45782407114122
474.11018997542
21.6641971587423
-84.0496136373042
3133067.25720891
T
23
CATAB v2.0e-lin.ifort 2019-Jul-13 01:41:28
2019-Jul-13 01:41
Alternate Designations
2000 QE188
= 1992 CR = 1998 GO7
[
Ephemeris
|
Orbit Diagram
|
Orbital Elements
|
Mission Design
|
Physical Parameters
|
Discovery Circumstances
|
Close-Approach Data
]
2019-Dec-13 22:13 UT
(server date/time)
Site Manager:
Ryan S. Park
Webmaster
:
Alan B. Chamberlin